TimePDT,TemperatureF,Dew PointF,Humidity,Sea Level PressureIn,VisibilityMPH,Wind Direction,Wind SpeedMPH,Gust SpeedMPH,PrecipitationIn,Events,Conditions,WindDirDegrees,DateUTC
12:53 AM,53.1,36.0,52,30.08,10.0,Calm,Calm,-,N/A,,Clear,0,2013-07-30 07:53:00
1:53 AM,52.0,37.0,57,30.09,10.0,Calm,Calm,-,N/A,,Clear,0,2013-07-30 08:53:00
2:53 AM,50.0,37.9,63,30.10,10.0,Calm,Calm,-,N/A,,Clear,0,2013-07-30 09:53:00
3:53 AM,48.0,37.9,68,30.12,10.0,Calm,Calm,-,N/A,,Clear,0,2013-07-30 10:53:00
4:53 AM,46.9,37.9,71,30.13,10.0,Calm,Calm,-,N/A,,Clear,0,2013-07-30 11:53:00
5:53 AM,46.0,37.9,73,30.14,10.0,Calm,Calm,-,N/A,,Clear,0,2013-07-30 12:53:00
6:53 AM,46.0,37.9,73,30.17,10.0,South,4.6,-,N/A,,Clear,190,2013-07-30 13:53:00
7:53 AM,55.9,42.1,60,30.15,10.0,Calm,Calm,-,N/A,,Clear,0,2013-07-30 14:53:00
8:53 AM,69.1,37.9,32,30.13,10.0,South,11.5,-,N/A,,Clear,190,2013-07-30 15:53:00
9:53 AM,72.0,36.0,27,30.12,10.0,SSW,12.7,18.4,N/A,,Clear,200,2013-07-30 16:53:00
10:53 AM,75.0,30.0,19,30.13,10.0,South,9.2,19.6,N/A,,Clear,190,2013-07-30 17:53:00
11:53 AM,75.0,32.0,21,30.15,10.0,South,15.0,19.6,N/A,,Clear,190,2013-07-30 18:53:00
12:53 PM,77.0,32.0,19,30.14,10.0,SSW,10.4,18.4,N/A,,Clear,210,2013-07-30 19:53:00
1:53 PM,78.1,30.0,17,30.13,10.0,Variable,6.9,21.9,N/A,,Clear,0,2013-07-30 20:53:00
2:53 PM,81.0,32.0,17,30.12,10.0,Variable,6.9,-,N/A,,Clear,0,2013-07-30 21:53:00
3:53 PM,82.0,35.1,18,30.11,9.0,South,13.8,23.0,N/A,,Clear,190,2013-07-30 22:53:00
4:53 PM,78.1,37.9,24,30.12,10.0,Variable,4.6,-,N/A,,Clear,0,2013-07-30 23:53:00
5:53 PM,77.0,37.9,24,30.12,10.0,South,10.4,-,N/A,,Clear,180,2013-07-31 00:53:00
6:53 PM,73.9,39.0,28,30.12,10.0,South,10.4,-,N/A,,Clear,170,2013-07-31 01:53:00
7:53 PM,71.1,37.9,30,30.11,10.0,SSW,8.1,-,N/A,,Clear,200,2013-07-31 02:53:00
8:53 PM,66.0,37.9,36,30.11,10.0,SSW,5.8,-,N/A,,Clear,210,2013-07-31 03:53:00
9:53 PM,64.0,39.0,40,30.13,10.0,SSE,3.5,-,N/A,,Clear,150,2013-07-31 04:53:00
10:53 PM,60.1,39.0,46,30.13,10.0,SSW,3.5,-,N/A,,Partly Cloudy,200,2013-07-31 05:53:00